Terminal Aerodrome Forecast
Issued by NWS

Home | Current Version | Previous Version | Text Only | Print | Product List | Glossary On
Versions: 1 2 3 4 5 6 7 8 9 10 11 12
000
FTUS43 KOAX 310520
TAFBFF
TAF
KBFF 310520Z 3106/0106 09009KT P6SM SKC
     FM311000 10011KT P6SM OVC007
     FM311600 15013KT P6SM BKN010
     FM311800 14017G23KT P6SM SCT250=

USA.gov is the U.S. government's official web portal to all federal, state and local government web resources and services.